Simultaneous Nadir Overpasses (SNOs) Predictions

Prediction of SNOs between METOP-B and NOAA-19 Satellite Orbit:

Table of predicted SNOs for the next 14.0 days since TLE Epoch: 8/6/2016
Index Date (METOP-B) Time (METOP-B) Lat,Lon (METOP-B) SZA (METOP-B ) Date (NOAA-19) Time (NOAA-19) Lat,Lon (NOAA-19) SZA (NOAA-19 ) Distance(km) Time Diff (sec)
1 08/07/2016 19:03:02 -76.23, 75.46 119.98 08/07/2016 19:01:49 -76.26, 75.46 119.95 3.64 73
2 08/07/2016 19:53:42 76.21,-117.25 60.02 08/07/2016 19:52:50 76.25,-117.26 60.06 3.99 52
3 08/07/2016 20:44:24 -76.21, 50.06 119.98 08/07/2016 20:43:50 -76.21, 50.12 119.97 1.73 34
4 08/07/2016 21:35:04 76.20,-142.65 60.02 08/07/2016 21:34:51 76.21,-142.60 60.03 1.50 13
5 08/07/2016 22:25:46 -76.19, 24.66 119.98 08/07/2016 22:25:52 -76.21, 24.62 119.95 2.64 6
6 08/07/2016 23:16:26 76.18,-168.04 60.03 08/07/2016 23:16:52 76.16,-167.95 60.01 3.31 26
7 08/08/2016 00:07:08 -76.18, -0.73 119.97 08/08/2016 00:07:53 -76.17, -0.73 119.98 0.81 45
8 08/08/2016 00:57:48 76.17, 166.56 60.03 08/08/2016 00:58:54 76.16, 166.54 60.03 0.46 66
9 08/08/2016 01:48:39 -75.75, -27.52 120.38 08/08/2016 01:49:46 -75.77, -24.80 120.36 74.45 67
10 08/18/2016 10:58:58 76.52, 17.56 63.58 08/18/2016 10:57:48 76.54, 15.64 63.59 49.54 70
11 08/18/2016 11:49:46 -76.26,-176.07 116.68 08/18/2016 11:48:45 -76.25,-175.99 116.69 2.81 61
12 08/18/2016 12:40:26 76.24, -8.83 63.31 08/18/2016 12:39:43 76.23, -8.68 63.31 4.12 43
13 08/18/2016 13:31:08 -76.25, 158.53 116.67 08/18/2016 13:30:47 -76.25, 158.50 116.67 0.74 21
14 08/18/2016 14:21:48 76.22, -34.23 63.32 08/18/2016 14:21:45 76.24, -34.19 63.33 2.09 3
15 08/18/2016 15:12:30 -76.23, 133.13 116.67 08/18/2016 15:12:48 -76.20, 133.16 116.69 2.97 18
16 08/18/2016 16:03:10 76.20, -59.63 63.32 08/18/2016 16:03:46 76.19, -59.53 63.31 2.78 36
17 08/18/2016 16:53:52 -76.21, 107.74 116.66 08/18/2016 16:54:50 -76.21, 107.65 116.67 2.46 58
18 08/18/2016 17:44:34 76.09, -85.34 63.24 08/18/2016 17:45:47 76.15, -84.88 63.29 13.80 73




NCC Satellite Simultaneous Nadir Overpasses (SNOs) Prediction Service
